Toms River, NJ

3:38 PM EDT on October 18, 2019 (GMT -0400)
Miller

Weather History for KMJX - August, 2019

Change the Weather History Date:

Wednesday, August 28, 2019

  Actual Average Record
Temperature  
Mean Temperature 72 °F -  
Max Temperature 73 °F 85 °F 98 °F (2018)
Min Temperature 69 °F 62 °F 46 °F (2010)
Cooling Degree Days 6    
Growing Degree Days 22 (Base 50)    
Moisture  
Dew Point 71 °F    
Average Humidity 91    
Maximum Humidity 91    
Minimum Humidity 91    
Precipitation  
Precipitation 0.05 in - - ()
Sea Level Pressure  
Sea Level Pressure 29.87 in    
Wind  
Wind Speed 5 mph (NNE)    
Max Wind Speed 9 mph    
Max Gust Speed -    
Visibility 8 miles    
Events Rain    
Averages and records for this station are not official NWS values.
T = Trace of Precipitation, MM = Missing Value Source: NWS Daily Summary

Daily Weather History Graph

Daily Weather History Graph

Search for Another Location

Airport or City:

Astronomy

Aug. 28, 2019 Rise Set
Actual Time 6:21 AM EDT 7:35 PM EDT
Civil Twilight 5:52 AM EDT 8:03 PM EDT
Nautical Twilight 5:19 AM EDT 8:36 PM EDT
Astronomical Twilight 4:44 AM EDT 9:11 PM EDT
Moon 3:50 AM EDT (8/28) 6:44 PM EDT (8/28)
Length of Visible Light 14h 10m
Length of Day
13h 14m
Waning Crescent, 5% of the Moon is Illuminated
Aug 28
Waning Crescent
Aug 30
New
Sep 5
First Quarter
Sep 14
Full
Sep 21
Last Quarter

Hourly Weather History & Observations

Time (EDT) Temp. Dew Point Humidity Pressure Visibility Wind Dir Wind Speed Gust Speed Precip Events Conditions
12:56 AM - - N/A% 30.00 in 10.0 mi North 3.5 mph - N/A   Overcast
1:56 AM - - N/A% 29.98 in 10.0 mi North 4.6 mph - N/A   Overcast
2:56 AM - - N/A% 29.96 in 10.0 mi North 3.5 mph - N/A   Overcast
3:56 AM - - N/A% 29.94 in 10.0 mi North 5.8 mph - N/A   Overcast
4:56 AM - - N/A% 29.93 in 10.0 mi NNE 4.6 mph - N/A   Overcast
5:56 AM - - N/A% 29.93 in 10.0 mi North 6.9 mph - N/A   Overcast
6:56 AM - - N/A% 29.94 in 10.0 mi NNE 5.8 mph - N/A   Overcast
7:56 AM 71.1 °F - N/A% 29.94 in 10.0 mi NNE 5.8 mph - N/A   Overcast
8:56 AM 71.1 °F - N/A% 29.92 in 10.0 mi NNE 8.1 mph - 0.00 in Rain Light Rain
9:56 AM 73.9 °F 71.1 °F 91% 29.91 in 10.0 mi NE 8.1 mph - 0.00 in   Overcast
10:46 AM 71.6 °F - N/A% 29.91 in 5.0 mi East 6.9 mph - 0.00 in Rain Light Rain
10:56 AM 70.0 °F - N/A% 29.92 in 4.0 mi NE 4.6 mph - 0.00 in Rain Rain
11:06 AM 69.8 °F - N/A% 29.90 in 3.0 mi NE 9.2 mph - 0.00 in Rain Light Rain
11:17 AM - - N/A% 29.90 in 6.0 mi NE 9.2 mph - 0.00 in Rain Light Rain
11:25 AM - - N/A% 29.90 in 7.0 mi NE 9.2 mph - 0.00 in Rain Light Rain
11:36 AM - - N/A% 29.90 in 10.0 mi NE 8.1 mph - 0.00 in   Overcast
11:56 AM - - N/A% 29.90 in 7.0 mi ENE 6.9 mph - 0.00 in Rain Light Rain
12:56 PM - - N/A% 29.87 in 3.0 mi North 8.1 mph - 0.00 in Rain Light Rain
1:42 PM - - N/A% 29.85 in 2.5 mi North 5.8 mph - 0.01 in Rain Light Rain
1:56 PM - - N/A% 29.85 in 2.5 mi NNE 6.9 mph - 0.01 in   Overcast
2:38 PM - - N/A% 29.84 in 3.0 mi North 5.8 mph - 0.00 in   Overcast
2:56 PM - - N/A% - 5.0 mi North 4.6 mph - 0.00 in   Haze
3:02 PM - - N/A% 29.84 in 7.0 mi North 6.9 mph - N/A   Overcast
3:54 PM - - N/A% 29.82 in 8.0 mi NNW 5.8 mph - N/A   Overcast
3:56 PM - - N/A% 29.82 in 8.0 mi North 4.6 mph - N/A Rain Light Rain
4:15 PM - - N/A% 29.82 in 10.0 mi North 5.8 mph - 0.00 in   Overcast
4:39 PM - - N/A% 29.82 in 10.0 mi North 5.8 mph - 0.01 in   Overcast
4:56 PM - - N/A% 29.83 in 10.0 mi Variable 4.6 mph - 0.01 in Rain Light Rain
5:24 PM - - N/A% 29.82 in 10.0 mi North 5.8 mph - 0.00 in   Mostly Cloudy
5:56 PM - - N/A% 29.83 in 10.0 mi NNE 3.5 mph - 0.00 in   Overcast
6:06 PM - - N/A% 29.83 in 10.0 mi North 3.5 mph - N/A   Overcast
6:25 PM - - N/A% 29.82 in 10.0 mi NE 3.5 mph - 0.01 in   Overcast
6:56 PM - - N/A% 29.82 in 10.0 mi NNE 3.5 mph - 0.01 in Rain Light Rain
7:56 PM - - N/A% 29.82 in 10.0 mi Calm Calm - 0.00 in   Clear
8:56 PM - - N/A% 29.83 in 10.0 mi West 3.5 mph - 0.01 in   Clear
9:56 PM - - N/A% 29.84 in 10.0 mi Calm Calm - N/A   Overcast
10:11 PM - - N/A% 29.84 in 10.0 mi Calm Calm - N/A   Overcast
10:27 PM - - N/A% 29.83 in 10.0 mi Calm Calm - N/A   Overcast
10:56 PM - - N/A% - 10.0 mi Calm Calm - 0.01 in   Overcast
11:21 PM - - N/A% 29.85 in 10.0 mi Calm Calm - N/A   Overcast
11:56 PM - - N/A% 29.85 in 10.0 mi NW 3.5 mph - N/A   Overcast